COSMOS 2251 DEB, 34008

Orbit data source: Space-Track

COSMOS 2251 DEB, 34008 is space debris in LEO originally from a launch on Wed, 16 Jun 1993 UTC launched from the Plesetsk Missile And Space Complex (PKMTR). The debris from Iridium 33, an American commercial communications satellite, has been tracked extensively since its accidental collision with the defunct Russian satellite Cosmos 2251 in 2009. This event, occurring at high speed in low Earth orbit (LEO), generated thousands of pieces of space debris, significantly increasing the risk of further collisions. The Iridium 33 debris cloud has impacted space traffic management and orbital debris mitigation strategies, making it a subject of ongoing study in space situational awareness.

Loading next visibility...
Identifier
34008, 1993-036GT
Orbit
LEO
Country
Flag of CISCIS
Related business
Manufacturer
Unknown
Mission
Spacecraft
Bus & Motor
Unknown
Mass
Unknown
Launch date (UTC)
1993-06-16 (33 years ago)
Launch vehicle
Unknown
Launch site
Plesetsk Missile And Space Complex (PKMTR)
Object type
Payload
Rocket body
Debris
Shape & HBR
Unknown shape, 0.2 m
Radar Cross Section
Small (<0.1 m²)

Expand to show TLE details & history
Last TLE update: 17 hours ago

TLE from 17 hours ago
0 COSMOS 2251 DEB
1 34008U 93036GT  26106.46561573  .00000146  00000-0  62505-4 0  9991
2 34008  74.0317 102.5647 0022172  69.5606  92.8620 14.33235413897516
Epoch: 2026-04-16T11:10Z
TLE epoch observation values (Epoch: 2026-04-16T11:10:29.199Z)
Latitude
16.62599°
Longitude
-94.54522°
Altitude
783.733 km
Speed
7.463 km/s
True Right ascension
18h 30m 45s
True Declination
16° 31' 56"
Sunlit
Object was in daylight at epoch
Visualization orbit readout
Latitude
Unknown
Longitude
Unknown
Altitude
Unknown
Speed
Unknown
Apparent Right ascension
Unknown
Apparent Declination
Unknown
Sunlit
N/A
Visualization observer readout
Local Sidereal Time
10:42:18
Azimuth
Unknown
Elevation
Unknown
Doppler factor
Unknown
Orbital elements
Apogee altitude
794.432 km
Perigee altitude
762.696 km
Semi-major axis
7,156.701 km
Eccentricity
0.00222
Inclination
74.0317°
RAAN
102.5647°
Arg. of periapsis
69.5606°
True anomaly
93.11572°
Mean anomaly
92.862°
Eccentric anomaly
92.98886°
Mean motion
3.58487 °/min
Orbital period
100.42 mins
BSTAR
0.000062505
Loading maneuver chart data...
Computing Atmospheric mass density...

Documentation

Showing up to 5 results
|